Flag for Libya Weather past 2 weeks in Benghazi, Libya

Now
86 °F

Sunny.


Feels Like: 87 °F
Forecast: 80 / 90 °F
Wind: No wind

Location: Souda Airport

Current Time: Jul 30, 2014 at 9:47:31 AM

Latest Report: Jul 30, 2014 at 8:50 AM


Visibility: 10 mi

Pressure: 29.83 "Hg

Humidity: 49%

Dew point: 64 °F

Location of BenghaziLocation

Historic Weather in Benghazi — Graph

°F

Benghazi temperature yesterday

Maximum temperature yesterday: 88 °F (at 2:50 PM)
Minimum temperature yesterday: 73 °F (at 1:50 AM)
Average temperature yesterday: 80 °F

Past Weeks' High & Low Weather Summary

 TemperatureHumidityPressure
High97 °F (Jul 28, 12:50 PM)94% (Jul 17, 5:50 AM)29.95 "Hg (Jul 17, 5:50 AM)
Low68 °F (Jul 17, 5:50 AM)23% (Jul 28, 3:50 PM)29.74 "Hg (Jul 23, 3:50 AM)
Average79 °F61%29.84 "Hg
* Reported Jul 15 8:20 AM — Jul 30 8:20 AM, Benghazi, Weather by CustomWeather, © 2014

Note: Actual official high and low records may vary slightly from our data, if they occured in-between our weather recording intervals... More about our weather records

Advertising

Benghazi weather history for previous 24 hours

 ConditionsComfort  
Time TempWeatherWind HumidityBarometerVisibility
8:20 AM
Jul 30
81 °FSunny.No wind58%29.83 "Hg10 mi
7:50 AM81 °FSunny.No wind58%29.83 "Hg10 mi
7:20 AM75 °FSunny.No wind74%29.80 "Hg10 mi
6:50 AM75 °FSunny.No wind74%29.80 "Hg10 mi
6:20 AM73 °FPassing clouds.No wind78%29.80 "HgN/A
5:50 AM73 °FPassing clouds.No wind78%29.80 "HgN/A
5:20 AM73 °FPassing clouds.No wind78%29.80 "HgN/A
4:50 AM73 °FPassing clouds.No wind78%29.80 "HgN/A
4:20 AM73 °FPassing clouds.No wind78%29.80 "HgN/A
3:50 AM73 °FPassing clouds.No wind78%29.80 "HgN/A
3:20 AM73 °FPassing clouds.5 mph89%29.80 "HgN/A
2:50 AM73 °FPassing clouds.5 mph89%29.80 "HgN/A
2:20 AM73 °FPassing clouds.5 mph89%29.80 "HgN/A
1:50 AM73 °FPassing clouds.5 mph89%29.80 "HgN/A
1:20 AM75 °FPassing clouds.7 mph78%29.83 "HgN/A
12:50 AM75 °FPassing clouds.5 mph78%29.83 "HgN/A
12:20 AM75 °FPassing clouds.5 mph78%29.83 "HgN/A
11:50 PM
Jul 29
75 °FPassing clouds.7 mph78%29.83 "HgN/A
11:20 PM75 °FPassing clouds.7 mph78%29.83 "HgN/A
10:50 PM75 °FPassing clouds.7 mph78%29.83 "HgN/A
10:20 PM75 °FPassing clouds.9 mph78%29.80 "HgN/A
9:50 PM75 °FPassing clouds.9 mph78%29.80 "HgN/A
9:20 PM77 °FClear.5 mph74%29.80 "Hg10 mi
8:50 PM77 °FClear.7 mph74%29.80 "Hg10 mi
8:20 PM77 °FSunny.13 mph74%29.80 "Hg10 mi
7:50 PM79 °FSunny.13 mph65%29.80 "Hg10 mi
7:20 PM81 °FSunny.9 mph66%29.80 "Hg10 mi
6:50 PM81 °FPassing clouds.16 mph66%29.80 "HgN/A
6:20 PM82 °FPassing clouds.15 mph55%29.80 "HgN/A
5:50 PM82 °FPassing clouds.14 mph55%29.80 "HgN/A
5:20 PM82 °FPassing clouds.12 mph62%29.80 "HgN/A
4:50 PM84 °FPassing clouds.16 mph51%29.80 "HgN/A
4:20 PM84 °FPassing clouds.18 mph51%29.80 "HgN/A
3:50 PM86 °FPassing clouds.17 mph49%29.80 "HgN/A
3:20 PM88 °FPassing clouds.17 mph49%29.83 "HgN/A
2:50 PM88 °FPassing clouds.9 mph49%29.83 "HgN/A
2:20 PM86 °FPassing clouds.16 mph49%29.83 "HgN/A
1:50 PM86 °FPassing clouds.17 mph49%29.83 "HgN/A
1:20 PM84 °FPassing clouds.13 mph55%29.83 "HgN/A
12:50 PM84 °FPassing clouds.18 mph55%29.83 "HgN/A
12:20 PM84 °FPassing clouds.18 mph55%29.83 "HgN/A
11:50 AM84 °FPassing clouds.14 mph55%29.83 "HgN/A
11:20 AM86 °FPassing clouds.14 mph49%29.80 "HgN/A
10:50 AM86 °FPassing clouds.16 mph49%29.80 "HgN/A
10:20 AM84 °FPassing clouds.16 mph55%29.83 "HgN/A
9:50 AM84 °FPassing clouds.14 mph55%29.83 "HgN/A
9:20 AM82 °FPassing clouds.16 mph62%29.80 "HgN/A
Weather by CustomWeather, © 2014

See weather overviewHow to use our weather pages